Location: Bh?mavarapp?du
(16.7041°N, 80.6518°E)
Time: 02:30:02
(UTC+00:00)

BREEZE M DEB (TANK) - Pass Details

Date: 21 April 2021
Orbit: 343 x 13618 km, 49.6° (Epoch: 07 May)

Event Time Altitude Azimuth Distance (km) Brightness Sun altitude
Rises 13:50:10 0° 229° (SW) 2,393 6.6 -13.7°
Reaches altitude 10° 13:52:16 10° 237° (WSW) 1,318 5.3 -14.2°
Maximum altitude 13:54:35 45° 313° (NW) 484 3.0 -14.7°
Drops below altitude 10° 13:57:21 10° 29° (NNE) 1,571 5.0 -15.4°
Sets 14:00:08 0° 36° (NE) 2,991 6.4 -16.0°
